Location: Mason-Dixon Star Party
(40.0361°N, 76.9958°W)
Time: 17:03:59
(UTC-04:00)

Daily predictions for brighter satellites

Satellite Brightness Start Highest point End
(mag) Time Altitude Azimuth Time Altitude Azimuth Time Altitude Azimuth
SL-8 R/B 3.7 20:13:37 10° SW 20:18:23 71° SE 20:23:10 10° ENE
Cosmos 220 Rocket 4.4 20:16:14 10° N 20:20:22 43° ENE 20:24:26 10° SE
BREEZE-M DEB (TANK) 3.5 20:23:58 10° NW 20:29:03 42° NNE 20:31:27 10° E
Cosmos 1666 Rocket 3.6 20:24:45 10° N 20:29:16 80° E 20:33:41 10° S
Cosmos 1151 Rocket 3.8 20:25:49 10° SSE 20:29:32 30° E 20:33:18 10° NNE
Cosmos 2341 Rocket 4.1 20:26:49 10° S 20:33:02 59° E 20:39:14 10° NNE
Sich 1 3.1 20:30:02 10° N 20:34:19 80° W 20:38:34 10° S
Meteor 2-21 Rocket 4.4 20:28:26 10° S 20:34:32 75° E 20:40:44 10° N
Cosmos 1933 Rocket 4.4 20:31:16 10° NNE 20:35:10 31° ENE 20:39:01 10° SE
SL-16 R/B 3.4 20:31:31 10° SE 20:35:28 20° E 20:39:26 10° NE
Envisat 3.1 20:31:35 10° SSE 20:36:40 87° WSW 20:41:47 10° NNW
H-2A R/B 4.0 20:35:19 10° ENE 20:36:49 11° ENE 20:38:19 10° NE
Aureole 2 3.9 20:34:51 10° S 20:37:50 66° ESE 20:40:45 10° NNE
Lacrosse 5 4.3 20:39:27 10° NNW 20:41:20 12° N 20:43:14 10° NNE
Cosmos 2251 Rocket 4.4 20:39:27 10° NNW 20:44:40 52° WSW 20:49:50 10° S
Resurs 1-3 3.8 20:41:14 10° SSE 20:45:30 54° ENE 20:49:48 10° N
Cosmos 1408 3.2 20:44:55 10° N 20:48:21 36° E 20:51:15 13° SE
SL-8 Rocket 4.2 20:45:11 10° SSE 20:51:16 53° E 20:57:21 10° NNE
Cosmos 2056 Rocket 4.2 20:46:26 10° SSE 20:51:18 35° E 20:56:10 10° NE
USA 186 1.2 20:54:10 10° S 20:56:23 66° W 20:58:41 10° NNW
Meteor 2-3 Rocket 3.8 20:52:11 10° N 20:57:49 85° W 21:03:28 10° S
Cosmos 1633 Rocket 3.7 20:55:11 10° NNW 20:59:26 56° W 21:03:42 10° S
SJ-6B 4.3 20:56:32 10° SSW 21:00:18 38° W 21:04:01 10° NNW
Cosmos 1980 3.7 20:54:48 10° SSW 21:00:29 90° WNW 21:06:13 10° NNE
ERS-2 2.9 20:57:11 10° S 21:00:46 53° W 21:04:23 10° NNW
Centaur D-1A AC-31 3.5 20:46:55 10° SW 21:01:33 25° S 21:05:15 15° SE
YAOGAN 6 2.9 21:01:44 10° S 21:05:18 67° W 21:08:58 10° NNW
ATLAS CENTAUR R/B 3.1 21:02:42 10° WSW 21:06:01 32° NW 21:09:30 10° NNE
Cosmos 2098 Rocket 3.4 21:02:41 10° SSE 21:07:02 40° E 21:10:34 10° NNE
ATLAS 2AS CENTAUR R/B 3.1 20:59:16 10° NW 21:07:07 74° WSW 21:13:55 12° SSE
SAR-Lupe-3 4.4 21:03:59 10° NNE 21:07:34 71° ESE 21:11:08 10° S
Cosmos 1624 Rocket 4.1 21:02:49 10° S 21:07:49 51° ESE 21:12:51 10° NNE
Cosmos 1869 3.5 21:04:37 10° S 21:08:31 51° E 21:12:26 10° NNE
Cosmos 1844 Rocket 4.5 21:05:16 10° NW 21:10:06 29° WSW 21:14:54 10° SSW
Cosmos 1455 3.5 21:06:43 10° SSW 21:10:22 42° W 21:14:04 10° N
Cosmos 1515 Rocket 3.7 21:07:09 10° S 21:11:37 81° W 21:16:06 10° N
CZ-4C R/B 3.8 21:16:07 15° E 21:16:07 15° E 21:17:42 10° ENE
Cosmos 1939 Rocket 3.4 21:10:47 10° S 21:14:36 57° W 21:18:28 10° NNW
Cosmos 405 3.9 21:12:36 10° NNE 21:15:44 30° ENE 21:16:19 28° E
Cosmos 2333 Rocket 3.5 21:10:42 10° SW 21:16:03 42° WNW 21:21:26 10° N
Cosmos 1441 Rocket 4.2 21:16:44 26° E 21:16:49 26° E 21:19:59 10° NE
Spot 2 Rocket 3.5 21:14:33 12° SSE 21:19:17 90° ENE 21:24:24 10° NNW
Cosmos 864 Rocket 4.4 21:15:42 10° S 21:21:44 66° E 21:27:49 10° NNE
Cosmos 2219 Rocket 4.1 21:17:27 10° WSW 21:22:31 33° WNW 21:27:35 10° N
Cosmos 2228 Rocket 3.8 21:22:40 10° SSW 21:26:58 54° W 21:31:17 10° N
Cosmos 2237 Rocket 2.8 21:21:49 10° SW 21:27:20 59° WNW 21:32:54 10° NNE
ATLAS 5 CENTAUR R/B 4.4 21:28:42 10° N 21:31:54 15° NE 21:35:16 10° ENE
NOSS 3-4 (A) 3.9 21:30:43 10° NNW 21:37:44 66° NE 21:41:47 29° SE
NOSS 3-4 (C) 4.0 21:30:49 10° NNW 21:37:51 65° NE 21:41:52 29° SE
Cosmos 2278 Rocket 2.8 21:32:43 10° NNW 21:38:14 54° WSW 21:42:33 17° S
NOAA 11 4.4 21:36:14 15° S 21:40:44 69° WSW 21:46:15 10° NNW
BREEZE-M DEB (TANK) 2.6 21:39:13 10° NW 21:41:43 44° N 21:41:43 44° N
USA 267 4.4 21:41:37 10° ENE 21:54:29 - SSW 21:44:35 23° E
Cosmos 614 Rocket 4.5 21:43:18 10° N 21:48:16 42° ENE 21:49:21 37° E
Cosmos 405 Rocket 2.6 21:48:48 62° ESE 21:48:58 63° E 21:52:52 10° NNE
ERS-1 Rocket 3.2 21:49:58 42° ESE 21:51:05 49° ENE 21:55:56 10° N
Cosmos 1420 Rocket 4.5 21:52:59 40° E 21:52:59 40° E 21:57:51 10° NE
GEOS 3 Rocket 4.4 21:48:37 10° NE 21:52:18 33° E 21:52:18 33° E
Resurs 01 Rocket 3.5 21:49:48 10° SSW 21:53:34 27° W 21:57:22 10° NW
Cosmos 1825 3.7 21:50:41 10° NNW 21:54:06 33° W 21:56:24 17° SSW
Terra 3.6 21:56:55 17° ENE 21:56:55 17° ENE 21:59:43 10° NNE
Cosmos 407 Rocket 3.4 21:54:07 10° NNW 21:59:15 79° WSW 22:00:57 43° S
Cosmos 1862 3.1 21:56:57 10° N 22:01:00 84° E 22:01:11 80° SE
Helios 1B rocket 4.3 21:58:03 10° NE 21:59:34 19° NE 21:59:34 19° NE
Cosmos 1727 Rocket 4.0 21:57:16 10° N 22:03:25 76° W 22:06:52 28° S
Cosmos 1821 Rocket 4.2 22:02:00 42° SE 22:03:29 51° E 22:09:33 10° NNE
SPOT 1/Viking Rocket 4.0 22:07:19 41° E 22:07:41 42° ENE 22:12:35 10° N
DMSP B5D2-2 4.3 22:04:58 10° NNE 22:09:49 48° E 22:09:49 48° E
USA 81 4.2 22:05:17 10° N 22:10:33 73° W 22:12:31 39° SSW
MetOp-B 4.1 22:08:59 48° S 22:10:34 86° WSW 22:15:57 10° NNW
ARGOS 3.2 22:10:29 42° S 22:12:19 73° WSW 22:17:42 10° NNW
H-2A R/B 1.9 22:14:36 60° S 22:15:32 86° WSW 22:20:32 10° NNW
Cosmos 1943 Rocket 3.8 22:12:44 10° N 22:16:36 19° NE 22:17:12 19° ENE
ATLAS 2A CENTAUR R/B 4.1 22:02:26 10° WSW 22:18:46 39° S 22:20:59 36° SSE
SL-16 R/B 2.8 22:13:33 10° SW 22:19:05 55° WNW 22:24:40 10° NNE
Cosmos 676 Rocket 3.9 22:16:39 10° NNW 22:21:55 81° WSW 22:22:34 67° S
SL-08 RB Rocket 3.7 22:22:04 67° SW 22:22:21 69° WSW 22:26:50 10° NNW
Cosmos 2123 Rocket 4.4 22:16:39 10° N 22:22:37 43° ENE 22:22:54 42° E
Cosmos 1023 Rocket 4.3 22:19:34 10° NNW 22:24:45 89° WSW 22:25:04 79° SSE
SPOT 5 2.9 22:26:17 58° NE 22:26:17 58° NE 22:30:10 10° N
Lacrosse 5 3.4 22:21:42 10° NNW 22:25:57 26° NNE 22:26:57 24° NE
Cosmos 1707 Rocket 3.8 22:25:48 59° WSW 22:26:06 61° W 22:30:24 10° N
Helios 1A 3.3 22:27:42 62° N 22:27:42 62° N 22:31:14 10° N
Cosmos 2344 3.5 22:23:00 10° SSW 22:30:38 89° ESE 22:38:56 10° NE
Cosmos 1452 Rocket 3.6 22:32:26 48° SW 22:33:52 72° WNW 22:39:08 10° NNE
Cosmos 1535 Rocket 4.4 22:34:42 65° SSE 22:35:33 76° E 22:41:57 10° N
SL-19 R/B 4.2 22:36:44 68° E 22:36:52 68° ENE 22:42:25 10° N
Cosmos 1241 Rocket 4.4 22:35:21 10° NNW 22:41:40 74° ENE 22:42:14 69° E
Cosmos 1733 Rocket 4.0 22:40:59 10° N 22:43:58 42° N 22:43:58 42° N
Meteor 2-17 Rocket 4.4 22:46:15 65° ENE 22:46:15 65° ENE 22:52:00 10° NNE
Cosmos 1603 3.7 22:46:57 69° NE 22:46:57 69° NE 22:51:55 10° NNE
Cosmos 1140 Rocket 3.9 22:42:54 10° NNW 22:47:57 55° WSW 22:47:57 55° WSW
Cosmos 1943 4.5 22:50:32 28° NE 22:50:32 28° NE 22:53:24 10° NE
Cosmos 1850 Rocket 4.3 22:47:46 10° NNW 22:52:09 60° NNE 22:52:09 60° NNE
Cosmos 1605 Rocket 4.1 22:54:29 60° ENE 22:54:29 60° ENE 23:00:14 10° NNE
BREEZE-M DEB (TANK) 4.2 22:26:02 10° WNW 22:54:50 80° NNE 22:56:50 55° ESE
Cosmos 2369 Rocket 2.7 22:50:30 10° NNW 22:55:29 49° NE 22:55:29 49° NE
CZ-4C R/B 2.5 23:01:07 55° W 23:01:53 61° NW 23:07:45 10° NNE
Cosmos 1741 Rocket 4.4 22:56:40 10° NNW 23:01:08 63° N 23:01:08 63° N
CZ-2C R/B 4.3 22:59:56 10° NNE 23:02:17 24° NE 23:02:17 24° NE
Meteor 1-14 Rocket 4.4 23:01:12 10° N 23:05:59 68° NNW 23:05:59 68° NNW
ATLAS 5 CENTAUR R/B 2.8 23:11:48 10° NNW 23:17:14 58° NNE 23:17:14 58° NNE
Cosmos 1934 Rocket 4.3 23:18:30 55° W 23:18:53 56° W 23:24:50 10° N
USA 267 3.3 23:23:59 10° NE 23:30:31 74° NW 23:31:49 58° WSW
Terra 3.3 23:35:47 33° NW 23:35:47 33° NW 23:38:39 10° NNW
CZ-2C R/B 4.3 23:39:46 34° NNW 23:39:46 34° NNW 23:42:30 10° NNW
